STARLINK-1852 (47139 NORAD) Tracking and Keplerian Element Data

This shows tracking and keplerian element data for the satellite.

Feedback or suggestion? Click here.




ElementValue
Catalog47139
NameSTARLINK-1852
Epoch Orbit175
Epoch Day59.91667824
Epoch Year2021
RAAN262.9031
Inclination53.0381
Eccentricity0.000245
Argument of Perigee88.5031
Mean Anonmoly36.1786
Mean Motion15.04744653
Decay Rate0.00012858
L11 47139U 20088T 21059.91667824 .00012858 00000-0 92030-3 0 9993
L22 47139 53.0381 262.9031 0002450 88.5031 36.1786 15.04744653 1758

Live tracking and technical data element details for STARLINK-1852 (NORAD 47139). STARLINK-1852 can be tracked NOW for your location showing map with azimuth and elevation plus other details from your city location.

Track the satellite on the map from your city or location and see movement details for azimuth, elevation, latitude, longitude, range, height, and movement on the map or in text.







IsCatalogInMostPopularTable: catalog: 47139, numindb: 33
Update: records affected: 1



GetName: 47139 STARLINK-1852

Hit Count: updated at: Mon, 01 Mar 2021 21:50:49 GMT